When you browse on this site, cookies collect data to enhance your experience and personalize the content and advertising you see.
Visit our Privacy Policy to learn more. By continuing to use the site, you agree to this use of cookies and data.
  • In Austria
  • List of Countries
  • For 7 days
  • Water Temperature
  • Satellite Maps
  • Weather Map
  • News
  • Weather Widgets
  • user-avatar
    Login

    Hourly Weather Korchevatka

    Today, 25 May, Saturday

    Time Temperature Precipitation Wind Pressure Humidity
    00:00 +15°C° 0 mm 2 mps 744 mmHg 94%
    01:00 +15°C° 0 mm 2 mps 744 mmHg 94%
    02:00 +14°C° 0 mm 1 mps 744 mmHg 94%
    03:00 +14°C° 0 mm 1 mps 744 mmHg 94%
    04:00 +14°C° 0 mm 2 mps 744 mmHg 95%
    05:00 +14°C° 0 mm 2 mps 744 mmHg 95%
    06:00 +15°C° 0 mm 2 mps 744 mmHg 91%
    07:00 +17°C° 0 mm 2 mps 744 mmHg 87%
    08:00 +18°C° 0 mm 3 mps 744 mmHg 82%
    09:00 +20°C° 0 mm 3 mps 744 mmHg 75%
    10:00 +21°C° 0 mm 3 mps 744 mmHg 69%
    11:00 +22°C° 0 mm 4 mps 744 mmHg 63%
    12:00 +22°C° 0 mm 4 mps 744 mmHg 60%
    13:00 +23°C° 0 mm 4 mps 744 mmHg 58%
    14:00 +23°C° 0 mm 4 mps 743 mmHg 56%
    15:00 +23°C° 0 mm 4 mps 743 mmHg 56%
    16:00 +22°C° 0 mm 4 mps 743 mmHg 56%
    17:00 +22°C° 0 mm 4 mps 743 mmHg 56%
    18:00 +20°C° 0 mm 3 mps 743 mmHg 62%
    19:00 +18°C° 0 mm 2 mps 743 mmHg 68%
    20:00 +17°C° 0 mm 2 mps 743 mmHg 73%
    21:00 +16°C° 0 mm 2 mps 744 mmHg 76%
    22:00 +15°C° 0 mm 2 mps 744 mmHg 80%
    23:00 +14°C° 0 mm 2 mps 744 mmHg 83%

    Tomorrow, 26 May, Sunday

    Time Temperature Precipitation Wind Pressure Humidity
    00:00 +14°C° 0 mm 2 mps 744 mmHg 86%
    01:00 +13°C° 0 mm 2 mps 745 mmHg 89%
    02:00 +13°C° 0 mm 2 mps 745 mmHg 93%
    03:00 +12°C° 0 mm 2 mps 745 mmHg 93%
    04:00 +12°C° 0 mm 2 mps 745 mmHg 93%
    05:00 +10°C° 0 mm 2 mps 745 mmHg 93%
    06:00 +13°C° 0 mm 2 mps 745 mmHg 85%
    07:00 +14°C° 0 mm 2 mps 746 mmHg 77%
    08:00 +14°C° 0 mm 3 mps 746 mmHg 69%
    09:00 +16°C° 0 mm 3 mps 746 mmHg 66%
    10:00 +17°C° 0 mm 4 mps 746 mmHg 63%
    11:00 +19°C° 0 mm 4 mps 746 mmHg 59%
    12:00 +19°C° 0 mm 4 mps 746 mmHg 60%
    13:00 +19°C° 0 mm 5 mps 746 mmHg 60%
    14:00 +20°C° 0 mm 5 mps 746 mmHg 60%
    15:00 +20°C° 0 mm 5 mps 745 mmHg 60%
    16:00 +20°C° 0 mm 5 mps 745 mmHg 60%
    17:00 +20°C° 0 mm 5 mps 745 mmHg 60%
    18:00 +19°C° 0 mm 4 mps 745 mmHg 66%
    19:00 +17°C° 0 mm 3 mps 745 mmHg 71%
    20:00 +16°C° 0 mm 3 mps 745 mmHg 77%
    21:00 +15°C° 0 mm 2 mps 745 mmHg 81%
    22:00 +14°C° 0 mm 2 mps 746 mmHg 85%
    23:00 +13°C° 0 mm 2 mps 746 mmHg 89%

    Day after tomorrow, 27 May, Monday

    Time Temperature Precipitation Wind Pressure Humidity
    00:00 +13°C° 0 mm 2 mps 746 mmHg 90%
    01:00 +12°C° 0 mm 2 mps 746 mmHg 92%
    02:00 +12°C° 0 mm 2 mps 746 mmHg 93%
    03:00 +12°C° 0 mm 2 mps 746 mmHg 93%
    04:00 +12°C° 0 mm 2 mps 746 mmHg 93%
    05:00 +12°C° 0 mm 2 mps 746 mmHg 93%
    06:00 +13°C° 0 mm 3 mps 746 mmHg 85%
    07:00 +17°C° 0 mm 3 mps 746 mmHg 77%
    08:00 +19°C° 0 mm 4 mps 747 mmHg 69%
    09:00 +20°C° 0 mm 4 mps 746 mmHg 65%
    10:00 +21°C° 0 mm 5 mps 746 mmHg 60%
    11:00 +23°C° 0 mm 5 mps 746 mmHg 56%
    12:00 +23°C° 0.1 mm 5 mps 746 mmHg 55%
    13:00 +25°C° 0.1 mm 5 mps 746 mmHg 54%
    14:00 +26°C° 0.1 mm 5 mps 746 mmHg 53%
    15:00 +26°C° 0.1 mm 5 mps 746 mmHg 56%
    16:00 +25°C° 0.1 mm 5 mps 745 mmHg 60%
    17:00 +25°C° 0.1 mm 4 mps 745 mmHg 63%
    18:00 +23°C° 0.1 mm 4 mps 745 mmHg 70%
    19:00 +21°C° 0.1 mm 3 mps 746 mmHg 77%
    20:00 +19°C° 0.1 mm 3 mps 746 mmHg 84%
    21:00 +19°C° 0.1 mm 3 mps 746 mmHg 87%
    22:00 +18°C° 0.1 mm 3 mps 746 mmHg 90%
    23:00 +18°C° 0.1 mm 3 mps 746 mmHg 92%

    28 May, Tuesday

    Time Temperature Precipitation Wind Pressure Humidity
    00:00 +18°C° 0 mm 2 mps 746 mmHg 91%
    01:00 +18°C° 0 mm 2 mps 746 mmHg 91%
    02:00 +18°C° 0 mm 2 mps 746 mmHg 90%
    03:00 +17°C° 0 mm 2 mps 746 mmHg 91%
    04:00 +17°C° 0 mm 2 mps 746 mmHg 92%
    05:00 +16°C° 0 mm 2 mps 746 mmHg 92%
    06:00 +18°C° 0 mm 2 mps 746 mmHg 88%
    07:00 +20°C° 0 mm 3 mps 746 mmHg 84%
    08:00 +21°C° 0 mm 3 mps 746 mmHg 79%
    09:00 +22°C° 0.4 mm 3 mps 745 mmHg 77%
    10:00 +23°C° 0.4 mm 4 mps 745 mmHg 75%
    11:00 +25°C° 0.4 mm 4 mps 745 mmHg 72%
    12:00 +26°C° 0.7 mm 4 mps 744 mmHg 70%
    13:00 +26°C° 0.7 mm 4 mps 744 mmHg 68%
    14:00 +27°C° 0.7 mm 5 mps 744 mmHg 66%
    15:00 +26°C° 0.8 mm 5 mps 743 mmHg 70%
    16:00 +26°C° 0.8 mm 4 mps 743 mmHg 73%
    17:00 +26°C° 0.8 mm 4 mps 743 mmHg 76%
    18:00 +23°C° 0.2 mm 4 mps 743 mmHg 77%
    19:00 +22°C° 0.2 mm 4 mps 743 mmHg 79%
    20:00 +21°C° 0.2 mm 4 mps 743 mmHg 80%
    21:00 +20°C° 0 mm 4 mps 743 mmHg 80%
    22:00 +20°C° 0 mm 4 mps 743 mmHg 80%
    23:00 +20°C° 0 mm 5 mps 743 mmHg 80%

    29 May, Wednesday

    Time Temperature Precipitation Wind Pressure Humidity
    00:00 +19°C° 0 mm 5 mps 743 mmHg 79%
    01:00 +18°C° 0 mm 4 mps 743 mmHg 79%
    02:00 +18°C° 0 mm 4 mps 743 mmHg 79%
    03:00 +17°C° 0 mm 4 mps 743 mmHg 79%
    04:00 +17°C° 0 mm 4 mps 743 mmHg 80%
    05:00 +15°C° 0 mm 4 mps 742 mmHg 81%
    06:00 +17°C° 0 mm 4 mps 742 mmHg 78%
    07:00 +19°C° 0 mm 5 mps 743 mmHg 75%
    08:00 +20°C° 0 mm 5 mps 743 mmHg 73%
    09:00 +21°C° 0 mm 5 mps 743 mmHg 70%
    10:00 +23°C° 0 mm 5 mps 743 mmHg 67%
    11:00 +25°C° 0 mm 5 mps 743 mmHg 65%
    12:00 +26°C° 0.3 mm 6 mps 742 mmHg 64%
    13:00 +27°C° 0.3 mm 6 mps 742 mmHg 64%
    14:00 +27°C° 0.3 mm 7 mps 742 mmHg 63%
    15:00 +26°C° 1.4 mm 6 mps 742 mmHg 69%
    16:00 +25°C° 1.4 mm 5 mps 742 mmHg 75%
    17:00 +23°C° 1.4 mm 4 mps 743 mmHg 81%
    18:00 +22°C° 0.1 mm 3 mps 743 mmHg 84%
    19:00 +21°C° 0.1 mm 3 mps 743 mmHg 87%
    20:00 +20°C° 0.1 mm 2 mps 743 mmHg 90%
    21:00 +19°C° 0 mm 2 mps 744 mmHg 92%
    22:00 +18°C° 0 mm 2 mps 744 mmHg 94%
    23:00 +17°C° 0 mm 2 mps 745 mmHg 96%

    30 May, Thursday

    Time Temperature Precipitation Wind Pressure Humidity
    00:00 +17°C° 0 mm 2 mps 745 mmHg 96%
    01:00 +17°C° 0 mm 3 mps 745 mmHg 97%
    02:00 +16°C° 0 mm 3 mps 746 mmHg 98%
    03:00 +16°C° 0 mm 3 mps 746 mmHg 97%
    04:00 +16°C° 0 mm 3 mps 747 mmHg 96%
    05:00 +16°C° 0 mm 3 mps 748 mmHg 95%
    06:00 +16°C° 0 mm 3 mps 748 mmHg 93%
    07:00 +15°C° 0 mm 4 mps 749 mmHg 92%
    08:00 +14°C° 0 mm 4 mps 749 mmHg 91%
    09:00 +16°C° 0 mm 3 mps 749 mmHg 87%
    10:00 +17°C° 0 mm 3 mps 750 mmHg 82%
    11:00 +18°C° 0 mm 3 mps 750 mmHg 78%
    12:00 +18°C° 0 mm 3 mps 750 mmHg 77%
    13:00 +19°C° 0 mm 3 mps 751 mmHg 75%
    14:00 +19°C° 0 mm 3 mps 751 mmHg 74%
    15:00 +19°C° 0 mm 3 mps 751 mmHg 75%
    16:00 +19°C° 0 mm 3 mps 751 mmHg 75%
    17:00 +19°C° 0 mm 3 mps 751 mmHg 76%
    18:00 +18°C° 0 mm 3 mps 751 mmHg 80%
    19:00 +17°C° 0 mm 2 mps 751 mmHg 84%
    20:00 +16°C° 0 mm 2 mps 751 mmHg 88%
    21:00 +15°C° 0 mm 2 mps 751 mmHg 90%
    22:00 +15°C° 0 mm 1 mps 751 mmHg 92%
    23:00 +14°C° 0 mm 1 mps 751 mmHg 94%
    Show more